Weather History for Cocoa Beach, FL

Change the Weather History Date:

Friday, July 5, 2013

  Actual Average Record
Temperature  
Mean Temperature 78 °F -  
Max Temperature 84 °F 85 °F 89 °F (1997)
Min Temperature 73 °F 74 °F 71 °F (1996)
Cooling Degree Days 14    
Growing Degree Days 28 (Base 50)    
Moisture  
Dew Point 74 °F    
Average Humidity 87    
Maximum Humidity 94    
Minimum Humidity 74    
Precipitation  
Precipitation 0.00 in - - ()
Sea Level Pressure  
Sea Level Pressure 30.15 in    
Wind  
Wind Speed 8 mph (ESE)    
Max Wind Speed 12 mph    
Max Gust Speed -    
Visibility 9 miles    
Events Thunderstorm    
Averages and records for this station are not official NWS values.
T = Trace of Precipitation, MM = Missing Value Source: NWS Daily Summary

Daily Weather History Graph

Daily Weather History Graph

Search for Another Location

Airport:

Trip Planner

Search our weather history database for the weather conditions in past years. The results will help you decide how hot, cold, wet, or windy it might be!

Date:

Astronomy

Jul. 05, 2013 Rise Set
Actual Time 6:30 AM EDT 8:23 PM EDT
Civil Twilight 6:04 AM EDT 8:49 PM EDT
Nautical Twilight 5:32 AM EDT 9:21 PM EDT
Astronomical Twilight 4:57 AM EDT 9:55 PM EDT
Moon 4:24 AM EDT (7/5) 6:20 PM EDT (7/5)
Length of Visible Light 14h 45m
Length of Day
13h 52m
Waning Crescent, 6% of the Moon is Illuminated
Jul 5
Waning Crescent
Jul 8
New
Jul 15
First Quarter
Jul 22
Full
Jul 29
Last Quarter

Hourly Weather History & Observations

Time (EDT) Temp. Heat Index Dew Point Humidity Pressure Visibility Wind Dir Wind Speed Gust Speed Precip Events Conditions
1:58 AM 75.9 °F - 73.4 °F 92% 30.15 in 10.0 mi SSE 9.2 mph - N/A Thunderstorm Clear
2:13 AM 75.2 °F - 73.4 °F 94% 30.15 in 7.0 mi SE 8.1 mph - N/A   Clear
2:38 AM 75.2 °F - 73.4 °F 94% 30.14 in 10.0 mi SE 5.8 mph - N/A Thunderstorm Clear
2:48 AM 75.2 °F - 73.4 °F 94% 30.14 in 9.0 mi SE 5.8 mph - N/A Thunderstorm Clear
2:58 AM 74.5 °F - 72.5 °F 94% 30.14 in 6.0 mi SE 6.9 mph - N/A   Clear
3:28 AM 73.4 °F - 71.6 °F 94% 30.14 in 10.0 mi SE 4.6 mph - N/A   Clear
3:48 AM 73.4 °F - 71.6 °F 94% 30.14 in 6.0 mi SE 4.6 mph - N/A   Clear
3:53 AM 73.4 °F - 71.6 °F 94% 30.14 in 5.0 mi SE 5.8 mph - N/A   Clear
3:58 AM 73.9 °F - 71.6 °F 92% 30.13 in 5.0 mi SE 5.8 mph - N/A   Clear
4:28 AM 73.4 °F - 71.6 °F 94% 30.12 in 10.0 mi East 4.6 mph - N/A   Clear
4:58 AM 75.4 °F - 72.5 °F 91% 30.11 in 10.0 mi ENE 8.1 mph - N/A   Clear
5:58 AM 75.7 °F - 73.6 °F 93% 30.11 in 10.0 mi East 9.2 mph - N/A   Clear
6:58 AM 76.1 °F - 73.6 °F 92% 30.14 in 10.0 mi ESE 4.6 mph - N/A Thunderstorm Clear
7:58 AM 77.9 °F - 74.5 °F 89% 30.15 in 10.0 mi East 5.8 mph - N/A   Clear
8:58 AM 79.3 °F - 75.2 °F 87% 30.17 in 10.0 mi ESE 8.1 mph - N/A   Clear
9:58 AM 81.0 °F 86.5 °F 74.7 °F 81% 30.16 in 10.0 mi ESE 11.5 mph - N/A   Clear
10:58 AM 81.3 °F 87.4 °F 74.8 °F 81% 30.18 in 10.0 mi SE 9.2 mph - N/A   Clear
11:08 AM 80.6 °F 86.2 °F 75.2 °F 84% 30.18 in 10.0 mi ESE 10.4 mph - N/A   Light Drizzle
11:18 AM 80.6 °F 86.2 °F 75.2 °F 84% 30.18 in 10.0 mi ESE 9.2 mph - N/A   Clear
11:58 AM 82.2 °F 89.1 °F 75.2 °F 79% 30.17 in 10.0 mi ESE 10.4 mph - 0.00 in   Clear
12:58 PM 82.9 °F 89.7 °F 74.5 °F 75% 30.16 in 10.0 mi ESE 11.5 mph - N/A   Clear
1:56 PM 84.2 °F 92.3 °F 75.2 °F 74% 30.15 in 10.0 mi ESE 11.5 mph - N/A   Scattered Clouds
2:58 PM 84.0 °F 92.2 °F 75.4 °F 75% 30.17 in 10.0 mi SE 11.5 mph - N/A   Clear
3:58 PM 83.3 °F 90.2 °F 74.3 °F 74% 30.14 in 10.0 mi ESE 11.5 mph - N/A   Clear
4:58 PM 82.9 °F 89.9 °F 74.8 °F 76% 30.12 in 10.0 mi ESE 10.4 mph - N/A   Clear
5:58 PM 81.9 °F 88.2 °F 74.8 °F 79% 30.12 in 10.0 mi ESE 9.2 mph - N/A   Clear
6:58 PM 81.0 °F 86.5 °F 74.5 °F 81% 30.12 in 10.0 mi ESE 8.1 mph - N/A   Clear
7:58 PM 79.3 °F - 74.3 °F 84% 30.14 in 10.0 mi ESE 9.2 mph - N/A   Clear
8:58 PM 78.3 °F - 74.1 °F 87% 30.14 in 10.0 mi ESE 8.1 mph - N/A   Clear
9:58 PM 77.7 °F - 74.1 °F 89% 30.16 in 10.0 mi ESE 8.1 mph - N/A   Clear
10:58 PM 77.5 °F - 74.1 °F 89% 30.17 in 10.0 mi SE 6.9 mph - N/A   Clear
11:18 PM 77.0 °F - 73.4 °F 89% 30.16 in 10.0 mi SE 8.1 mph - N/A   Clear
11:48 PM 77.0 °F - 73.4 °F 89% 30.16 in 9.0 mi SE 5.8 mph - N/A   Clear
11:58 PM 77.0 °F - 73.9 °F 90% 30.17 in 9.0 mi SE 5.8 mph - N/A   Clear